Weather reports worldwide

Advertisment
Kielder Castle, United Kingdom (99186): temperature & dewpoint: 21.04.2017 04:00:00 - 27.04.2017 04:00:00 (BST)Kielder Castle, United Kingdom (99186): temperature -20cm & temperature -100cm: 21.04.2017 04:00:00 - 27.04.2017 04:00:00 (BST)Kielder Castle, United Kingdom (99186): precipitation: 21.04.2017 04:00:00 - 27.04.2017 04:00:00 (BST)
Date & Time tt [°C] td [°C] tt -20cm [°C] tt -100cm [°C] rr [mm]
27.04.2017 04:00:00 - - - - -
27.04.2017 03:00:00 1,2 -0,3 - - 0,0
27.04.2017 02:00:00 0,4 -1,3 - - 0,0
27.04.2017 01:00:00 0,0 -1,8 - - 0,0
27.04.2017 00:00:00 0,2 -1,9 - - 0,0
26.04.2017 23:00:00 1,8 -1,3 - - 0,0
26.04.2017 22:00:00 3,1 -1,3 - - 0,0
26.04.2017 21:00:00 4,5 -1,5 - - 0,0
26.04.2017 20:00:00 5,8 -3,1 - - 0,0
26.04.2017 19:00:00 6,1 -3,2 - - 0,0
26.04.2017 18:00:00 6,5 -3,2 - - 0,0
26.04.2017 17:00:00 6,4 -4,3 - - 0,0
26.04.2017 16:00:00 6,4 -4,3 - - 0,0
26.04.2017 15:00:00 6,7 -4,8 - - 0,0
26.04.2017 14:00:00 6,5 -4,6 - - 0,0
26.04.2017 13:00:00 6,2 -5,0 - - 0,0
26.04.2017 12:00:00 5,7 -2,4 - - 0,0
26.04.2017 11:00:00 5,0 -3,4 - - 0,0
26.04.2017 10:00:00 4,1 -3,1 8,7 8,7 0,0
26.04.2017 09:00:00 3,1 -2,4 - - 0,0
26.04.2017 08:00:00 1,9 -2,4 - - 0,0
26.04.2017 07:00:00 -0,1 -3,3 - - 0,0
26.04.2017 06:00:00 -0,9 -3,5 - - 0,0
26.04.2017 05:00:00 -0,7 -3,2 - - 0,0
26.04.2017 04:00:00 -0,5 -3,0 - - 0,0
26.04.2017 03:00:00 -0,2 -2,7 - - 0,0
26.04.2017 02:00:00 0,6 -2,3 - - 0,0
26.04.2017 01:00:00 1,2 -2,0 - - 0,0
26.04.2017 00:00:00 1,5 -1,7 - - 0,0
25.04.2017 23:00:00 2,0 -1,2 - - 0,0
25.04.2017 22:00:00 2,4 -0,3 - - 0,0
25.04.2017 21:00:00 2,5 0,1 - - 0,0
25.04.2017 20:00:00 2,9 0,4 - - 0,0
25.04.2017 19:00:00 3,1 1,1 - - 0,4
25.04.2017 18:00:00 1,7 0,0 - - 1,8
25.04.2017 17:00:00 2,4 0,3 - - 1,2
25.04.2017 16:00:00 3,6 0,5 - - 0,4
25.04.2017 15:00:00 5,4 1,3 - - 0,2
25.04.2017 14:00:00 3,7 0,5 - - 0,4
25.04.2017 13:00:00 5,4 1,5 - - 0,4
25.04.2017 12:00:00 3,8 0,3 - - 0,2
25.04.2017 11:00:00 5,0 -1,4 - - 0,0
25.04.2017 10:00:00 3,7 -1,4 9,5 8,7 0,0
25.04.2017 09:00:00 3,5 -2,7 - - 0,0
25.04.2017 08:00:00 2,2 -2,9 - - 0,0
25.04.2017 07:00:00 0,6 -3,2 - - 0,0
25.04.2017 06:00:00 0,2 -3,1 - - 0,0
25.04.2017 05:00:00 -0,2 -2,9 - - 0,0
25.04.2017 04:00:00 -1,2 -2,6 - - 0,0
25.04.2017 03:00:00 -0,5 -2,2 - - 0,0
25.04.2017 02:00:00 -1,4 -3,3 - - 0,0
25.04.2017 01:00:00 -1,7 -3,8 - - 0,0
25.04.2017 00:00:00 -2,0 -4,0 - - 0,0
24.04.2017 23:00:00 -0,3 -4,6 - - 0,0
24.04.2017 22:00:00 -1,2 -3,6 - - 0,0
24.04.2017 21:00:00 1,0 -3,6 - - 0,0
24.04.2017 20:00:00 3,4 -3,9 - - 0,0
24.04.2017 19:00:00 2,6 -2,1 - - 0,2
24.04.2017 18:00:00 2,7 0,3 - - 0,2
24.04.2017 17:00:00 1,8 -0,2 - - 0,4
24.04.2017 16:00:00 8,5 -4,3 - - 0,0
24.04.2017 15:00:00 7,6 -6,3 - - 0,0
24.04.2017 14:00:00 8,9 -6,3 - - 0,0
24.04.2017 13:00:00 8,2 -2,3 - - 0,0
24.04.2017 12:00:00 9,1 -3,1 - - 0,0
24.04.2017 11:00:00 7,2 -1,3 - - 0,0
24.04.2017 10:00:00 6,8 0,2 9,9 8,5 0,0
24.04.2017 09:00:00 6,4 4,2 - - 0,0
24.04.2017 08:00:00 4,6 3,5 - - 0,0
24.04.2017 07:00:00 3,3 2,3 - - 2,4
24.04.2017 06:00:00 6,6 5,1 - - 0,0
24.04.2017 05:00:00 6,1 4,6 - - 0,0
24.04.2017 04:00:00 6,4 5,4 - - 0,6
24.04.2017 03:00:00 6,3 4,9 - - 0,2
24.04.2017 02:00:00 6,8 4,5 - - 0,0
24.04.2017 01:00:00 6,8 4,0 - - 0,0
24.04.2017 00:00:00 7,2 4,9 - - 0,0
23.04.2017 23:00:00 7,5 5,1 - - 0,0
23.04.2017 22:00:00 7,1 4,7 - - 0,0
23.04.2017 21:00:00 7,9 4,6 - - 0,0
23.04.2017 20:00:00 7,9 4,6 - - 0,0
23.04.2017 19:00:00 9,3 3,9 - - 0,0
23.04.2017 18:00:00 9,5 3,0 - - 0,0
23.04.2017 17:00:00 10,6 4,1 - - 0,0
23.04.2017 16:00:00 11,4 2,6 - - 0,0
23.04.2017 15:00:00 12,8 3,0 - - 0,0
23.04.2017 14:00:00 12,2 3,2 - - 0,0
23.04.2017 13:00:00 11,0 1,1 - - 0,0
23.04.2017 12:00:00 9,6 0,7 - - 0,0
23.04.2017 11:00:00 9,3 0,0 - - 0,0
23.04.2017 10:00:00 7,8 0,0 9,5 8,5 0,0
23.04.2017 09:00:00 6,4 1,9 - - 0,0
23.04.2017 08:00:00 2,9 0,9 - - 0,0
23.04.2017 07:00:00 0,4 -0,5 - - 0,0
23.04.2017 06:00:00 0,2 -0,8 - - 0,0
23.04.2017 05:00:00 0,1 -0,8 - - 0,0
23.04.2017 04:00:00 -0,1 -1,0 - - 0,0
23.04.2017 03:00:00 0,3 -1,1 - - 0,0
23.04.2017 02:00:00 1,5 -0,1 - - 0,0
23.04.2017 01:00:00 2,6 0,3 - - 0,0
23.04.2017 00:00:00 4,5 1,0 - - 0,0
22.04.2017 23:00:00 4,9 1,4 - - 0,0
22.04.2017 22:00:00 5,4 0,6 - - 0,0
22.04.2017 21:00:00 7,1 0,9 - - 0,0
22.04.2017 20:00:00 8,1 0,0 - - 0,0
22.04.2017 19:00:00 9,7 -1,2 - - 0,0
22.04.2017 18:00:00 10,8 -1,3 - - 0,0
22.04.2017 17:00:00 9,8 -1,2 - - 0,0
22.04.2017 16:00:00 10,1 -2,2 - - 0,0
22.04.2017 15:00:00 9,6 -2,6 - - 0,0
22.04.2017 14:00:00 9,1 -2,4 - - 0,0
22.04.2017 13:00:00 8,4 -2,6 - - 0,0
22.04.2017 12:00:00 8,4 -2,0 - - 0,0
22.04.2017 11:00:00 6,7 -0,9 - - 0,0
22.04.2017 10:00:00 6,0 -0,7 9,7 8,2 0,0
22.04.2017 09:00:00 5,4 0,6 - - 0,0
22.04.2017 08:00:00 3,9 2,2 - - 0,0
22.04.2017 07:00:00 -0,8 -1,3 - - 0,0
22.04.2017 06:00:00 -0,9 -1,5 - - 0,0
22.04.2017 05:00:00 -0,8 -1,3 - - 0,0
22.04.2017 04:00:00 -0,4 -1,1 - - 0,0
22.04.2017 03:00:00 0,2 -0,6 - - 0,0
22.04.2017 02:00:00 1,0 0,0 - - 0,0
22.04.2017 01:00:00 1,8 0,8 - - 0,0
22.04.2017 00:00:00 2,6 1,1 - - 0,0
21.04.2017 23:00:00 4,2 1,8 - - 0,0
21.04.2017 22:00:00 5,0 2,4 - - 0,0
21.04.2017 21:00:00 7,2 3,0 - - 0,0
21.04.2017 20:00:00 10,1 3,6 - - 0,0
21.04.2017 19:00:00 11,6 4,3 - - 0,0
21.04.2017 18:00:00 11,9 5,7 - - 0,0
21.04.2017 17:00:00 11,9 8,1 - - 0,0
21.04.2017 16:00:00 13,1 7,0 - - 0,0
21.04.2017 15:00:00 12,0 6,9 - - 0,0
21.04.2017 14:00:00 12,5 6,7 - - 0,0
21.04.2017 13:00:00 12,4 7,4 - - 0,0
21.04.2017 12:00:00 11,6 7,8 - - 0,0
21.04.2017 11:00:00 10,4 8,0 - - 0,0
21.04.2017 10:00:00 9,9 7,7 9,7 8,2 0,0
21.04.2017 09:00:00 9,7 8,6 - - 0,4
21.04.2017 08:00:00 8,8 7,8 - - 0,0
21.04.2017 07:00:00 8,8 7,3 - - 0,0
21.04.2017 06:00:00 8,6 7,3 - - 0,2
21.04.2017 05:00:00 8,6 7,1 - - 0,0
21.04.2017 04:00:00 8,5 6,7 - - 0,0

tt = temperature
td = dewpoint
tt -20cm = temperature -20cm
tt -100cm = temperature -100cm
rr = precipitation

Next stations